| time (UTC) | temp C | wind direction | speed KPH | gust KPH | rain 1hr cm | rain 24hr cm | rain mn cm | humidity % | barometer mb |
| 20260508192040 | 39 | 126 | 1.6 | 8.0 | 0.00 | 0.00 | 0.00 | 100 | 1010.2 |
| 20260508191535 | 39 | 82 | 3.2 | 11.3 | 0.00 | 0.00 | 0.00 | 100 | 1010.2 |
| 20260508191030 | 40 | 109 | 4.8 | 11.3 | 0.00 | 0.00 | 0.00 | 100 | 1010.2 |
| 20260508190751 | 40 | 333 | 0.0 | 8.0 | 0.00 | 0.00 | 0.00 | 100 | 1010.3 |
| 20260508190021 | 40 | 12 | 3.2 | 9.7 | 0.00 | 0.00 | 0.00 | 100 | 1010.2 |
| 20260508185514 | 40 | 30 | 0.0 | 9.7 | 0.00 | 0.00 | 0.00 | 100 | 1010.3 |
| 20260508185013 | 40 | 136 | 0.0 | 8.0 | 0.00 | 0.00 | 0.00 | 100 | 1010.4 |
| 20260508184505 | 39 | 126 | 4.8 | 9.7 | 0.00 | 0.00 | 0.00 | 100 | 1010.4 |
| 20260508184236 | 39 | 54 | 0.0 | 9.7 | 0.00 | 0.00 | 0.00 | 100 | 1010.5 |
| 20260508183503 | 40 | 132 | 1.6 | 9.7 | 0.00 | 0.00 | 0.00 | 100 | 1010.6 |
| 20260508183001 | 39 | 165 | 6.4 | 9.7 | 0.00 | 0.00 | 0.00 | 100 | 1010.7 |
| 20260508182501 | 40 | 60 | 4.8 | 14.5 | 0.00 | 0.00 | 0.00 | 100 | 1010.7 |
| 20260508182001 | 39 | 68 | 6.4 | 14.5 | 0.00 | 0.00 | 0.00 | 100 | 1010.8 |
| 20260508181458 | 39 | 8 | 3.2 | 9.7 | 0.00 | 0.00 | 0.00 | 100 | 1010.9 |
| 20260508181229 | 39 | 91 | 0.0 | 9.7 | 0.00 | 0.00 | 0.00 | 100 | 1011.0 |
| 20260508180458 | 39 | 315 | 6.4 | 9.7 | 0.00 | 0.00 | 0.00 | 100 | 1011.1 |
| 20260508175957 | 39 | 210 | 3.2 | 8.0 | 0.00 | 0.00 | 0.00 | 100 | 1011.2 |
| 20260508175456 | 39 | 144 | 6.4 | 11.3 | 0.00 | 0.00 | 0.00 | 100 | 1011.1 |
| 20260508174957 | 39 | 158 | 1.6 | 11.3 | 0.00 | 0.00 | 0.00 | 100 | 1011.2 |
| 20260508174451 | 38 | 348 | 0.0 | 8.0 | 0.00 | 0.00 | 0.00 | 100 | 1011.3 |
| 20260508173950 | 39 | 310 | 1.6 | 8.0 | 0.00 | 0.00 | 0.00 | 100 | 1011.4 |
| 20260508173449 | 39 | 119 | 6.4 | 8.0 | 0.00 | 0.00 | 0.00 | 100 | 1011.4 |
| 20260508173220 | 39 | 78 | 0.0 | 8.0 | 0.00 | 0.00 | 0.00 | 100 | 1011.5 |
| 20260508172719 | 38 | 268 | 1.6 | 8.0 | 0.00 | 0.00 | 0.00 | 100 | 1011.6 |
| 20260508171944 | 38 | 322 | 6.4 | 11.3 | 0.00 | 0.00 | 0.00 | 100 | 1011.6 |
| 20260508171443 | 38 | 302 | 8.0 | 11.3 | 0.00 | 0.00 | 0.00 | 100 | 1011.6 |
| 20260508170943 | 38 | 337 | 4.8 | 8.0 | 0.00 | 0.00 | 0.00 | 100 | 1011.8 |
| 20260508170443 | 38 | 47 | 0.0 | 4.8 | 0.00 | 0.00 | 0.00 | 100 | 1011.8 |
| 20260508165934 | 38 | 47 | 0.0 | 9.7 | 0.00 | 0.00 | 0.00 | 100 | 1011.8 |
| 20260508165432 | 37 | 21 | 4.8 | 9.7 | 0.00 | 0.00 | 0.00 | 100 | 1011.9 |
| 20260508165203 | 37 | 81 | 0.0 | 9.7 | 0.00 | 0.00 | 0.00 | 100 | 1011.9 |
| 20260508164432 | 37 | 29 | 0.0 | 0.0 | 0.00 | 0.00 | 0.00 | 100 | 1012.1 |
| 20260508163924 | 37 | 29 | 0.0 | 0.0 | 0.00 | 0.00 | 0.00 | 100 | 1012.3 |
| 20260508163422 | 37 | 29 | 0.0 | 0.0 | 0.00 | 0.00 | 0.00 | 100 | 1012.3 |
| 20260508163418 | 37 | 29 | 0.0 | 0.0 | 0.00 | 0.00 | 0.00 | 100 | 1012.3 |
| 20260508162407 | 37 | 29 | 0.0 | 0.0 | 0.00 | 0.00 | 0.00 | 100 | 1012.5 |
| 20260508161844 | 37 | 29 | 0.0 | 0.0 | 0.00 | 0.00 | 0.00 | 100 | 1012.5 |
| 20260508161840 | 36 | 29 | 0.0 | 0.0 | 0.00 | 0.00 | 0.00 | 100 | 1012.4 |
| 20260508160832 | 37 | 29 | 0.0 | 0.0 | 0.00 | 0.00 | 0.00 | 100 | 1012.5 |
| 20260508160556 | 37 | 29 | 0.0 | 0.0 | 0.00 | 0.00 | 0.00 | 100 | 1012.6 |
| 20260508160043 | 37 | 29 | 0.0 | 0.0 | 0.00 | 0.00 | 0.00 | 100 | 1012.6 |
| 20260508155538 | 36 | 29 | 0.0 | 0.0 | 0.00 | 0.00 | 0.00 | 100 | 1012.6 |
| 20260508154802 | 36 | 29 | 0.0 | 0.0 | 0.00 | 0.00 | 0.00 | 100 | 1012.8 |
| 20260508154304 | 36 | 29 | 0.0 | 0.0 | 0.00 | 0.00 | 0.00 | 100 | 1012.8 |
| 20260508154300 | 36 | 29 | 0.0 | 0.0 | 0.00 | 0.00 | 0.00 | 100 | 1012.8 |
| 20260508153518 | 36 | 29 | 0.0 | 0.0 | 0.00 | 0.00 | 0.00 | 100 | 1013.0 |
| 20260508152740 | 36 | 29 | 0.0 | 0.0 | 0.00 | 0.00 | 0.00 | 100 | 1012.9 |
| 20260508152224 | 36 | 29 | 0.0 | 0.0 | 0.00 | 0.00 | 0.00 | 100 | 1012.9 |
| 20260508151721 | 36 | 29 | 0.0 | 0.0 | 0.00 | 0.00 | 0.00 | 100 | 1012.9 |
| 20260508151441 | 36 | 29 | 0.0 | 0.0 | 0.00 | 0.00 | 0.00 | 100 | 1013.0 |
| 20260508150909 | 36 | 29 | 0.0 | 0.0 | 0.00 | 0.00 | 0.00 | 100 | 1013.0 |
| 20260508150136 | 36 | 29 | 0.0 | 0.0 | 0.00 | 0.00 | 0.00 | 100 | 1013.0 |
| 20260508145632 | 36 | 29 | 0.0 | 0.0 | 0.00 | 0.00 | 0.00 | 100 | 1013.1 |
| 20260508145120 | 36 | 29 | 0.0 | 0.0 | 0.00 | 0.00 | 0.00 | 100 | 1013.0 |
| 20260508144616 | 36 | 29 | 0.0 | 0.0 | 0.00 | 0.00 | 0.00 | 100 | 1012.9 |
| 20260508144112 | 36 | 29 | 0.0 | 0.0 | 0.00 | 0.00 | 0.00 | 100 | 1012.9 |
| 20260508143607 | 36 | 29 | 0.0 | 0.0 | 0.00 | 0.00 | 0.00 | 100 | 1013.0 |
| 20260508143104 | 35 | 29 | 0.0 | 8.0 | 0.00 | 0.00 | 0.00 | 100 | 1013.0 |
| 20260508142557 | 36 | 29 | 0.0 | 8.0 | 0.00 | 0.00 | 0.00 | 100 | 1012.9 |
| 20260508142055 | 35 | 109 | 0.0 | 6.4 | 0.00 | 0.00 | 0.00 | 100 | 1012.6 |
| 20260508141824 | 35 | 139 | 4.8 | 6.4 | 0.00 | 0.00 | 0.00 | 100 | 1012.6 |
| 20260508141052 | 35 | 82 | 0.0 | 4.8 | 0.00 | 0.00 | 0.00 | 100 | 1012.6 |
| 20260508140808 | 35 | 82 | 0.0 | 1.6 | 0.00 | 0.00 | 0.00 | 100 | 1012.8 |
| 20260508140018 | 35 | 82 | 0.0 | 6.4 | 0.00 | 0.00 | 0.00 | 100 | 1012.9 |
| 20260508135504 | 35 | 337 | 0.0 | 6.4 | 0.00 | 0.00 | 0.00 | 100 | 1012.8 |
| 20260508135233 | 35 | 337 | 0.0 | 0.0 | 0.00 | 0.00 | 0.00 | 100 | 1013.0 |
| 20260508134443 | 35 | 337 | 0.0 | 0.0 | 0.00 | 0.00 | 0.00 | 100 | 1013.1 |
| 20260508133920 | 35 | 337 | 0.0 | 0.0 | 0.00 | 0.00 | 0.00 | 100 | 1013.1 |
| 20260508133410 | 35 | 337 | 0.0 | 0.0 | 0.00 | 0.00 | 0.00 | 100 | 1013.1 |
| 20260508132902 | 35 | 337 | 0.0 | 0.0 | 0.00 | 0.00 | 0.00 | 100 | 1013.1 |
| 20260508132629 | 35 | 337 | 0.0 | 1.6 | 0.00 | 0.00 | 0.00 | 100 | 1013.1 |
| 20260508131859 | 35 | 337 | 0.0 | 6.4 | 0.00 | 0.00 | 0.00 | 100 | 1012.9 |
| 20260508131400 | 35 | 337 | 1.6 | 6.4 | 0.00 | 0.00 | 0.00 | 100 | 1012.8 |
| 20260508130844 | 35 | 43 | 0.0 | 0.0 | 0.00 | 0.00 | 0.00 | 100 | 1013.2 |
| 20260508130315 | 35 | 43 | 0.0 | 0.0 | 0.00 | 0.00 | 0.00 | 100 | 1013.4 |
| 20260508125802 | 35 | 43 | 0.0 | 0.0 | 0.00 | 0.00 | 0.00 | 100 | 1013.3 |
| 20260508125532 | 35 | 43 | 0.0 | 6.4 | 0.00 | 0.00 | 0.00 | 100 | 1013.2 |
| 20260508124758 | 35 | 43 | 0.0 | 6.4 | 0.00 | 0.00 | 0.00 | 100 | 1013.1 |
| 20260508124527 | 35 | 29 | 0.0 | 0.0 | 0.00 | 0.00 | 0.00 | 100 | 1013.3 |
| 20260508123750 | 35 | 29 | 0.0 | 0.0 | 0.00 | 0.00 | 0.00 | 100 | 1013.2 |
| 20260508123240 | 35 | 29 | 0.0 | 0.0 | 0.00 | 0.00 | 0.00 | 100 | 1013.2 |
| 20260508122734 | 35 | 29 | 0.0 | 0.0 | 0.00 | 0.00 | 0.00 | 100 | 1013.2 |
| 20260508122232 | 35 | 29 | 0.0 | 0.0 | 0.00 | 0.00 | 0.00 | 100 | 1013.2 |
| 20260508121712 | 35 | 29 | 0.0 | 3.2 | 0.00 | 0.00 | 0.00 | 100 | 1013.3 |
| 20260508121211 | 35 | 29 | 0.0 | 9.7 | 0.00 | 0.00 | 0.00 | 100 | 1013.4 |
| 20260508120659 | 34 | 47 | 0.0 | 9.7 | 0.00 | 0.00 | 0.00 | 100 | 1013.4 |
| 20260508120200 | 34 | 88 | 0.0 | 0.0 | 0.00 | 0.00 | 0.00 | 100 | 1013.6 |
| 20260508115650 | 34 | 88 | 0.0 | 8.0 | 0.00 | 0.00 | 0.00 | 100 | 1013.6 |
| 20260508115128 | 35 | 88 | 0.0 | 12.9 | 0.00 | 0.00 | 0.00 | 100 | 1013.6 |
| 20260508114604 | 34 | 77 | 4.8 | 12.9 | 0.00 | 0.00 | 0.00 | 100 | 1013.8 |
| 20260508114100 | 35 | 348 | 0.0 | 6.4 | 0.00 | 0.00 | 0.00 | 100 | 1014.0 |
| 20260508113558 | 35 | 348 | 0.0 | 8.0 | 0.00 | 0.00 | 0.00 | 100 | 1014.0 |
| 20260508113058 | 35 | 36 | 0.0 | 8.0 | 0.00 | 0.00 | 0.00 | 100 | 1013.8 |
| 20260508112552 | 34 | 334 | 0.0 | 8.0 | 0.00 | 0.00 | 0.00 | 100 | 1013.8 |
| 20260508112044 | 34 | 12 | 0.0 | 4.8 | 0.00 | 0.00 | 0.00 | 100 | 1013.8 |
| 20260508111543 | 35 | 4 | 1.6 | 4.8 | 0.00 | 0.00 | 0.00 | 100 | 1013.9 |
| 20260508111042 | 35 | 15 | 0.0 | 0.0 | 0.00 | 0.00 | 0.00 | 100 | 1013.9 |
| 20260508110542 | 34 | 15 | 0.0 | 0.0 | 0.00 | 0.00 | 0.00 | 100 | 1013.6 |
| 20260508110041 | 34 | 15 | 0.0 | 8.0 | 0.00 | 0.00 | 0.00 | 100 | 1013.4 |
| 20260508105759 | 34 | 15 | 0.0 | 9.7 | 0.00 | 0.00 | 0.00 | 100 | 1013.3 |
| 20260508105025 | 34 | 29 | 3.2 | 9.7 | 0.00 | 0.00 | 0.00 | 100 | 1013.3 |
| 20260508104519 | 34 | 16 | 0.0 | 6.4 | 0.00 | 0.00 | 0.00 | 100 | 1013.2 |
| 20260508104012 | 34 | 28 | 0.0 | 9.7 | 0.00 | 0.00 | 0.00 | 100 | 1013.2 |
| 20260508103512 | 34 | 310 | 0.0 | 12.9 | 0.00 | 0.00 | 0.00 | 100 | 1013.3 |
| 20260508103009 | 34 | 2 | 3.2 | 14.5 | 0.00 | 0.00 | 0.00 | 100 | 1013.4 |
| 20260508102504 | 34 | 45 | 4.8 | 14.5 | 0.00 | 0.00 | 0.00 | 100 | 1013.3 |
| 20260508102231 | 34 | 309 | 0.0 | 9.7 | 0.00 | 0.00 | 0.00 | 100 | 1013.4 |
| 20260508101731 | 34 | 327 | 3.2 | 9.7 | 0.00 | 0.00 | 0.00 | 100 | 1013.6 |
| 20260508100958 | 34 | 331 | 0.0 | 8.0 | 0.00 | 0.00 | 0.00 | 100 | 1013.8 |
| 20260508100445 | 34 | 358 | 6.4 | 8.0 | 0.00 | 0.00 | 0.00 | 100 | 1013.9 |
| 20260508095944 | 35 | 336 | 0.0 | 8.0 | 0.00 | 0.00 | 0.00 | 100 | 1014.0 |
| 20260508095440 | 34 | 307 | 0.0 | 8.0 | 0.00 | 0.00 | 0.00 | 100 | 1013.9 |
| 20260508094921 | 34 | 7 | 0.0 | 4.8 | 0.00 | 0.00 | 0.00 | 100 | 1013.8 |
| 20260508094412 | 34 | 35 | 0.0 | 0.0 | 0.00 | 0.00 | 0.00 | 100 | 1013.9 |
| 20260508093902 | 34 | 35 | 0.0 | 0.0 | 0.00 | 0.00 | 0.00 | 100 | 1014.0 |
| 20260508093358 | 34 | 35 | 0.0 | 0.0 | 0.00 | 0.00 | 0.00 | 100 | 1014.1 |
| 20260508092846 | 34 | 35 | 0.0 | 0.0 | 0.00 | 0.00 | 0.00 | 100 | 1014.0 |
| 20260508092332 | 34 | 35 | 0.0 | 0.0 | 0.00 | 0.00 | 0.00 | 100 | 1013.8 |
| 20260508091816 | 34 | 35 | 0.0 | 0.0 | 0.00 | 0.00 | 0.00 | 100 | 1013.6 |
| 20260508091317 | 34 | 35 | 0.0 | 0.0 | 0.00 | 0.00 | 0.00 | 100 | 1013.8 |
| 20260508090807 | 34 | 35 | 0.0 | 0.0 | 0.00 | 0.00 | 0.00 | 100 | 1013.5 |
| 20260508090244 | 35 | 35 | 0.0 | 0.0 | 0.00 | 0.00 | 0.00 | 100 | 1013.5 |
| 20260508085738 | 35 | 35 | 0.0 | 0.0 | 0.00 | 0.00 | 0.00 | 100 | 1013.5 |
| 20260508085229 | 34 | 35 | 0.0 | 6.4 | 0.00 | 0.00 | 0.00 | 100 | 1013.5 |
| 20260508084723 | 35 | 35 | 0.0 | 6.4 | 0.00 | 0.00 | 0.00 | 100 | 1013.4 |
| 20260508084219 | 34 | 74 | 0.0 | 0.0 | 0.00 | 0.00 | 0.00 | 100 | 1013.3 |
| 20260508083718 | 34 | 74 | 0.0 | 0.0 | 0.00 | 0.00 | 0.00 | 100 | 1013.4 |
| 20260508083441 | 35 | 74 | 0.0 | 0.0 | 0.00 | 0.00 | 0.00 | 100 | 1013.5 |
| 20260508082646 | 35 | 74 | 0.0 | 0.0 | 0.00 | 0.00 | 0.00 | 100 | 1013.6 |
| 20260508082126 | 35 | 74 | 0.0 | 0.0 | 0.00 | 0.00 | 0.00 | 100 | 1013.6 |
| 20260508081839 | 35 | 74 | 0.0 | 0.0 | 0.00 | 0.00 | 0.00 | 100 | 1013.8 |
| 20260508081106 | 35 | 74 | 0.0 | 0.0 | 0.00 | 0.00 | 0.00 | 100 | 1013.6 |
| 20260508080654 | 35 | 74 | 0.0 | 0.0 | 0.00 | 0.00 | 0.00 | 100 | 1013.6 |
| 20260508075545 | 34 | 74 | 0.0 | 4.8 | 0.00 | 0.00 | 0.00 | 100 | 1013.6 |
| 20260508075043 | 34 | 74 | 0.0 | 8.0 | 0.00 | 0.00 | 0.00 | 100 | 1013.5 |
| 20260508074544 | 35 | 60 | 0.0 | 8.0 | 0.00 | 0.00 | 0.00 | 100 | 1013.5 |
| 20260508074028 | 35 | 80 | 0.0 | 9.7 | 0.00 | 0.00 | 0.00 | 100 | 1013.5 |
| 20260508073517 | 35 | 97 | 4.8 | 9.7 | 0.00 | 0.00 | 0.00 | 100 | 1013.3 |
| 20260508072956 | 35 | 40 | 3.2 | 8.0 | 0.00 | 0.00 | 0.00 | 100 | 1013.2 |
| 20260508072448 | 35 | 43 | 0.0 | 9.7 | 0.00 | 0.00 | 0.00 | 100 | 1013.4 |
| 20260508071944 | 35 | 22 | 1.6 | 9.7 | 0.00 | 0.00 | 0.00 | 100 | 1013.8 |
| 20260508071444 | 34 | 57 | 0.0 | 8.0 | 0.00 | 0.00 | 0.00 | 100 | 1013.5 |
| 20260508070943 | 34 | 39 | 0.0 | 11.3 | 0.00 | 0.00 | 0.00 | 100 | 1013.4 |
| 20260508070714 | 34 | 32 | 0.0 | 11.3 | 0.00 | 0.00 | 0.00 | 100 | 1013.3 |
| 20260508070214 | 34 | 336 | 1.6 | 4.8 | 0.00 | 0.00 | 0.00 | 100 | 1013.6 |
| 20260508065444 | 34 | 123 | 0.0 | 3.2 | 0.00 | 0.00 | 0.00 | 100 | 1014.1 |
| 20260508065145 | 34 | 123 | 0.0 | 8.0 | 0.00 | 0.00 | 0.00 | 100 | 1014.3 |
| 20260508064405 | 34 | 123 | 1.6 | 8.0 | 0.00 | 0.00 | 0.00 | 100 | 1014.0 |
| 20260508063904 | 34 | 11 | 0.0 | 3.2 | 0.00 | 0.00 | 0.00 | 100 | 1014.1 |
| 20260508063345 | 34 | 11 | 0.0 | 0.0 | 0.00 | 0.00 | 0.00 | 100 | 1014.2 |
| 20260508063112 | 34 | 11 | 0.0 | 0.0 | 0.00 | 0.00 | 0.00 | 100 | 1014.3 |
| 20260508062331 | 34 | 11 | 0.0 | 0.0 | 0.00 | 0.00 | 0.00 | 100 | 1014.7 |
| 20260508061822 | 34 | 11 | 0.0 | 0.0 | 0.00 | 0.00 | 0.00 | 100 | 1014.8 |
| 20260508061323 | 34 | 11 | 0.0 | 0.0 | 0.00 | 0.00 | 0.00 | 100 | 1014.6 |
| 20260508060800 | 34 | 11 | 0.0 | 0.0 | 0.00 | 0.00 | 0.00 | 100 | 1014.5 |
| 20260508060739 | 34 | 11 | 0.0 | 0.0 | 0.00 | 0.00 | 0.00 | 100 | 1014.5 |
| 20260508055714 | 34 | 11 | 0.0 | 0.0 | 0.00 | 0.00 | 0.00 | 100 | 1014.2 |
| 20260508055203 | 34 | 11 | 0.0 | 0.0 | 0.00 | 0.00 | 0.00 | 100 | 1014.1 |
| 20260508054659 | 34 | 11 | 0.0 | 0.0 | 0.00 | 0.00 | 0.00 | 100 | 1014.2 |
| 20260508054649 | 34 | 11 | 0.0 | 0.0 | 0.00 | 0.00 | 0.00 | 100 | 1014.4 |
| 20260508053645 | 34 | 11 | 0.0 | 0.0 | 0.00 | 0.00 | 0.00 | 100 | 1014.6 |
| 20260508053140 | 35 | 11 | 0.0 | 0.0 | 0.00 | 0.00 | 0.00 | 100 | 1014.8 |
| 20260508052632 | 35 | 11 | 0.0 | 0.0 | 0.00 | 0.00 | 0.00 | 100 | 1014.7 |
| 20260508052343 | 34 | 11 | 0.0 | 0.0 | 0.00 | 0.00 | 0.00 | 100 | 1014.6 |
| 20260508051607 | 34 | 11 | 0.0 | 0.0 | 0.00 | 0.00 | 0.00 | 100 | 1014.3 |
| 20260508051102 | 34 | 11 | 0.0 | 0.0 | 0.00 | 0.00 | 0.00 | 100 | 1014.3 |
| 20260508050546 | 34 | 11 | 0.0 | 0.0 | 0.00 | 0.00 | 0.00 | 100 | 1014.2 |
| 20260508050033 | 34 | 11 | 0.0 | 0.0 | 0.00 | 0.00 | 0.00 | 100 | 1014.0 |
| 20260508045531 | 34 | 11 | 0.0 | 3.2 | 0.00 | 0.00 | 0.00 | 100 | 1014.4 |
| 20260508045014 | 34 | 11 | 0.0 | 8.0 | 0.00 | 0.00 | 0.00 | 100 | 1014.8 |
| 20260508044506 | 34 | 11 | 0.0 | 8.0 | 0.00 | 0.00 | 0.00 | 100 | 1014.9 |
| 20260508044006 | 34 | 106 | 0.0 | 4.8 | 0.00 | 0.00 | 0.00 | 100 | 1015.3 |
| 20260508043459 | 34 | 106 | 0.0 | 0.0 | 0.00 | 0.00 | 0.00 | 100 | 1014.5 |
| 20260508043224 | 34 | 106 | 0.0 | 0.0 | 0.00 | 0.00 | 0.00 | 100 | 1014.1 |
| 20260508042430 | 34 | 106 | 0.0 | 0.0 | 0.00 | 0.00 | 0.00 | 100 | 1014.1 |
| 20260508041926 | 34 | 106 | 0.0 | 0.0 | 0.00 | 0.00 | 0.00 | 100 | 1013.9 |
| 20260508041412 | 34 | 106 | 0.0 | 0.0 | 0.00 | 0.00 | 0.00 | 100 | 1014.3 |
| 20260508040908 | 34 | 106 | 0.0 | 0.0 | 0.00 | 0.00 | 0.00 | 100 | 1015.0 |
| 20260508040403 | 34 | 106 | 0.0 | 0.0 | 0.00 | 0.00 | 0.00 | 100 | 1015.0 |
| 20260508035858 | 34 | 106 | 0.0 | 0.0 | 0.00 | 0.00 | 0.00 | 100 | 1014.9 |
| 20260508035351 | 34 | 106 | 0.0 | 0.0 | 0.00 | 0.00 | 0.00 | 100 | 1014.7 |
| 20260508035346 | 34 | 106 | 0.0 | 0.0 | 0.00 | 0.00 | 0.00 | 100 | 1014.8 |
| 20260508034333 | 34 | 106 | 0.0 | 0.0 | 0.00 | 0.00 | 0.00 | 100 | 1015.1 |
| 20260508033818 | 34 | 106 | 0.0 | 0.0 | 0.00 | 0.00 | 0.00 | 100 | 1015.3 |
| 20260508033309 | 34 | 106 | 0.0 | 0.0 | 0.00 | 0.00 | 0.00 | 100 | 1015.3 |
| 20260508032758 | 34 | 106 | 0.0 | 0.0 | 0.00 | 0.00 | 0.00 | 100 | 1015.4 |
| 20260508032259 | 35 | 106 | 0.0 | 0.0 | 0.00 | 0.00 | 0.00 | 100 | 1015.8 |
| 20260508031749 | 35 | 106 | 0.0 | 0.0 | 0.00 | 0.00 | 0.00 | 100 | 1015.8 |
| 20260508031520 | 35 | 106 | 0.0 | 0.0 | 0.00 | 0.00 | 0.00 | 100 | 1015.6 |
| 20260508030744 | 35 | 106 | 0.0 | 0.0 | 0.00 | 0.00 | 0.00 | 100 | 1015.4 |
| 20260508030244 | 35 | 106 | 0.0 | 0.0 | 0.00 | 0.00 | 0.00 | 100 | 1015.2 |
| 20260508025731 | 35 | 106 | 0.0 | 0.0 | 0.00 | 0.00 | 0.00 | 100 | 1014.9 |
| 20260508025230 | 35 | 106 | 0.0 | 0.0 | 0.00 | 0.00 | 0.00 | 100 | 1014.8 |
| 20260508024719 | 35 | 106 | 0.0 | 0.0 | 0.00 | 0.00 | 0.00 | 100 | 1014.5 |
| 20260508024218 | 35 | 106 | 0.0 | 6.4 | 0.00 | 0.00 | 0.00 | 100 | 1014.3 |
| 20260508023926 | 35 | 106 | 0.0 | 11.3 | 0.00 | 0.00 | 0.00 | 100 | 1014.3 |
| 20260508023150 | 35 | 106 | 6.4 | 11.3 | 0.00 | 0.00 | 0.00 | 100 | 1014.0 |
| 20260508022650 | 35 | 81 | 4.8 | 11.3 | 0.00 | 0.00 | 0.00 | 100 | 1013.8 |
| 20260508022151 | 35 | 137 | 0.0 | 11.3 | 0.00 | 0.00 | 0.00 | 100 | 1013.3 |
| 20260508021643 | 35 | 64 | 1.6 | 9.7 | 0.00 | 0.00 | 0.00 | 100 | 1013.0 |
| 20260508021140 | 35 | 113 | 1.6 | 9.7 | 0.00 | 0.00 | 0.00 | 100 | 1013.0 |
| 20260508020631 | 35 | 126 | 0.0 | 16.1 | 0.00 | 0.00 | 0.00 | 100 | 1013.1 |
| 20260508020118 | 35 | 77 | 3.2 | 16.1 | 0.00 | 0.00 | 0.00 | 100 | 1013.3 |
| 20260508015615 | 35 | 36 | 0.0 | 9.7 | 0.00 | 0.00 | 0.00 | 100 | 1013.4 |
| 20260508015112 | 35 | 108 | 0.0 | 11.3 | 0.00 | 0.00 | 0.00 | 100 | 1013.4 |
| 20260508014613 | 35 | 125 | 1.6 | 11.3 | 0.00 | 0.00 | 0.00 | 100 | 1013.4 |
| 20260508014113 | 35 | 50 | 1.6 | 9.7 | 0.00 | 0.00 | 0.00 | 100 | 1013.2 |
| 20260508013611 | 35 | 50 | 0.0 | 9.7 | 0.00 | 0.00 | 0.00 | 100 | 1013.1 |
| 20260508013113 | 35 | 59 | 1.6 | 8.0 | 0.00 | 0.00 | 0.00 | 100 | 1013.3 |
| 20260508013109 | 35 | 87 | 0.0 | 8.0 | 0.00 | 0.00 | 0.00 | 100 | 1013.1 |
| 20260508012059 | 35 | 115 | 4.8 | 8.0 | 0.00 | 0.00 | 0.00 | 100 | 1013.4 |
| 20260508011552 | 35 | 142 | 6.4 | 14.5 | 0.00 | 0.00 | 0.00 | 100 | 1013.2 |
| 20260508011050 | 35 | 326 | 8.0 | 14.5 | 0.00 | 0.00 | 0.00 | 100 | 1013.2 |
| 20260508010551 | 35 | 43 | 8.0 | 14.5 | 0.00 | 0.00 | 0.00 | 100 | 1013.9 |
| 20260508010323 | 35 | 91 | 3.2 | 11.3 | 0.00 | 0.00 | 0.00 | 100 | 1013.9 |
| 20260508005551 | 35 | 358 | 1.6 | 16.1 | 0.00 | 0.00 | 0.00 | 100 | 1013.3 |
| 20260508005050 | 35 | 22 | 4.8 | 16.1 | 0.00 | 0.00 | 0.00 | 100 | 1013.9 |
| 20260508004547 | 35 | 309 | 4.8 | 14.5 | 0.00 | 0.00 | 0.00 | 100 | 1013.8 |
| 20260508004047 | 35 | 129 | 6.4 | 11.3 | 0.00 | 0.00 | 0.00 | 100 | 1013.6 |
| 20260508003543 | 35 | 9 | 0.0 | 17.7 | 0.00 | 0.00 | 0.00 | 100 | 1013.9 |
| 20260508003045 | 35 | 23 | 1.6 | 17.7 | 0.00 | 0.00 | 0.00 | 100 | 1013.9 |
| 20260508002543 | 35 | 343 | 3.2 | 11.3 | 0.00 | 0.00 | 0.00 | 100 | 1013.8 |
| 20260508002043 | 35 | 322 | 1.6 | 11.3 | 0.00 | 0.00 | 0.00 | 100 | 1014.0 |
| 20260508001543 | 35 | 150 | 6.4 | 11.3 | 0.00 | 0.00 | 0.00 | 100 | 1014.1 |
| 20260508001043 | 36 | 343 | 3.2 | 9.7 | 0.00 | 0.00 | 0.00 | 100 | 1014.6 |
| 20260508000545 | 36 | 75 | 3.2 | 8.0 | 0.00 | 0.00 | 0.00 | 100 | 1014.5 |
| 20260508000042 | 36 | 33 | 0.0 | 1.6 | 0.00 | 0.00 | 0.00 | 100 | 1014.5 |
| 20260507235755 | 35 | 33 | 0.0 | 4.8 | 0.00 | 0.00 | 0.00 | 100 | 1014.5 |
| 20260507235026 | 36 | 33 | 0.0 | 6.4 | 0.00 | 0.00 | 0.00 | 100 | 1014.9 |
| 20260507234520 | 36 | 7 | 0.0 | 6.4 | 0.00 | 0.00 | 0.00 | 100 | 1015.1 |
| 20260507234005 | 35 | 73 | 0.0 | 8.0 | 0.00 | 0.00 | 0.00 | 100 | 1014.8 |
| 20260507233506 | 36 | 59 | 0.0 | 8.0 | 0.00 | 0.00 | 0.00 | 100 | 1014.8 |
| 20260507232958 | 36 | 35 | 0.0 | 6.4 | 0.00 | 0.00 | 0.00 | 100 | 1014.8 |
| 20260507232445 | 36 | 320 | 0.0 | 6.4 | 0.00 | 0.00 | 0.00 | 100 | 1015.0 |
| 20260507231944 | 36 | 320 | 0.0 | 8.0 | 0.00 | 0.00 | 0.00 | 100 | 1015.1 |
| 20260507231436 | 36 | 33 | 0.0 | 9.7 | 0.00 | 0.00 | 0.00 | 100 | 1014.8 |
| 20260507230925 | 36 | 82 | 6.4 | 9.7 | 0.00 | 0.00 | 0.00 | 100 | 1014.7 |
| 20260507230413 | 36 | 334 | 3.2 | 9.7 | 0.00 | 0.00 | 0.00 | 100 | 1014.7 |
| 20260507225912 | 36 | 28 | 0.0 | 9.7 | 0.00 | 0.00 | 0.00 | 100 | 1015.0 |
| 20260507225408 | 36 | 46 | 4.8 | 14.5 | 0.00 | 0.00 | 0.00 | 100 | 1014.9 |
| 20260507224906 | 36 | 68 | 9.7 | 14.5 | 0.00 | 0.00 | 0.00 | 100 | 1014.9 |
| 20260507224406 | 36 | 18 | 0.0 | 16.1 | 0.00 | 0.00 | 0.00 | 100 | 1014.8 |
| 20260507223853 | 36 | 19 | 4.8 | 16.1 | 0.00 | 0.00 | 0.00 | 100 | 1014.8 |
| 20260507223347 | 36 | 59 | 0.0 | 9.7 | 0.00 | 0.00 | 0.00 | 100 | 1015.1 |
| 20260507222845 | 36 | 292 | 0.0 | 9.7 | 0.00 | 0.00 | 0.00 | 100 | 1015.2 |
| 20260507222345 | 36 | 303 | 4.8 | 17.7 | 0.00 | 0.00 | 0.00 | 100 | 1015.3 |
| 20260507221843 | 36 | 29 | 0.0 | 17.7 | 0.00 | 0.00 | 0.00 | 100 | 1015.3 |
| 20260507221343 | 36 | 357 | 3.2 | 16.1 | 0.00 | 0.00 | 0.00 | 100 | 1015.2 |
| 20260507220843 | 36 | 1 | 8.0 | 17.7 | 0.00 | 0.00 | 0.00 | 100 | 1015.3 |
| 20260507220347 | 36 | 333 | 11.3 | 17.7 | 0.00 | 0.00 | 0.00 | 100 | 1015.2 |
| 20260507220343 | 36 | 358 | 9.7 | 17.7 | 0.00 | 0.00 | 0.00 | 100 | 1015.3 |
| 20260507215347 | 36 | 5 | 6.4 | 20.9 | 0.00 | 0.00 | 0.00 | 100 | 1015.3 |
| 20260507215343 | 36 | 15 | 3.2 | 12.9 | 0.00 | 0.00 | 0.00 | 100 | 1015.3 |
| 20260507214328 | 36 | 1 | 9.7 | 20.9 | 0.00 | 0.00 | 0.00 | 100 | 1015.7 |
| 20260507213826 | 36 | 338 | 4.8 | 14.5 | 0.00 | 0.00 | 0.00 | 100 | 1015.8 |
| 20260507213327 | 36 | 8 | 0.0 | 20.9 | 0.00 | 0.00 | 0.00 | 100 | 1015.8 |
| 20260507212827 | 36 | 310 | 3.2 | 20.9 | 0.00 | 0.00 | 0.00 | 100 | 1015.9 |
| 20260507212327 | 36 | 49 | 3.2 | 12.9 | 0.00 | 0.00 | 0.00 | 100 | 1015.7 |
| 20260507211826 | 36 | 309 | 6.4 | 12.9 | 0.00 | 0.00 | 0.00 | 100 | 1015.6 |
| 20260507211326 | 36 | 56 | 8.0 | 12.9 | 0.00 | 0.00 | 0.00 | 100 | 1015.3 |
| 20260507211057 | 36 | 334 | 3.2 | 14.5 | 0.00 | 0.00 | 0.00 | 100 | 1015.3 |
| 20260507210324 | 36 | 123 | 6.4 | 14.5 | 0.00 | 0.00 | 0.00 | 100 | 1015.2 |
| 20260507205821 | 36 | 7 | 8.0 | 12.9 | 0.00 | 0.00 | 0.00 | 100 | 1015.6 |
| 20260507205321 | 35 | 18 | 6.4 | 11.3 | 0.00 | 0.00 | 0.00 | 100 | 1015.6 |
| 20260507204821 | 35 | 11 | 6.4 | 11.3 | 0.00 | 0.00 | 0.00 | 100 | 1015.7 |
| 20260507204312 | 35 | 358 | 1.6 | 11.3 | 0.00 | 0.00 | 0.00 | 100 | 1015.9 |
| 20260507204033 | 36 | 64 | 0.0 | 12.9 | 0.00 | 0.00 | 0.00 | 100 | 1016.1 |
| 20260507203302 | 36 | 270 | 4.8 | 12.9 | 0.00 | 0.00 | 0.00 | 100 | 1016.1 |
| 20260507202803 | 35 | 317 | 1.6 | 11.3 | 0.00 | 0.00 | 0.00 | 100 | 1016.2 |
| 20260507202532 | 35 | 358 | 1.6 | 16.1 | 0.00 | 0.00 | 0.00 | 100 | 1016.4 |
| 20260507201759 | 35 | 347 | 3.2 | 16.1 | 0.00 | 0.00 | 0.00 | 100 | 1016.3 |
| 20260507201530 | 35 | 43 | 0.0 | 11.3 | 0.00 | 0.00 | 0.00 | 100 | 1016.5 |
| 20260507200759 | 36 | 333 | 0.0 | 11.3 | 0.00 | 0.00 | 0.00 | 100 | 1016.5 |
| 20260507200259 | 36 | 26 | 1.6 | 11.3 | 0.00 | 0.00 | 0.00 | 100 | 1016.4 |
| 20260507195750 | 36 | 90 | 4.8 | 14.5 | 0.00 | 0.00 | 0.00 | 100 | 1016.5 |
| 20260507195251 | 35 | 74 | 6.4 | 14.5 | 0.00 | 0.00 | 0.00 | 100 | 1016.3 |
| 20260507194750 | 35 | 334 | 8.0 | 14.5 | 0.00 | 0.00 | 0.00 | 100 | 1016.3 |
| 20260507194250 | 35 | 78 | 3.2 | 17.7 | 0.00 | 0.00 | 0.00 | 100 | 1016.4 |
| 20260507193749 | 35 | 344 | 6.4 | 17.7 | 0.00 | 0.00 | 0.00 | 100 | 1016.6 |
| 20260507193521 | 35 | 70 | 9.7 | 16.1 | 0.00 | 0.00 | 0.00 | 100 | 1016.8 |
| 20260507192752 | 35 | 60 | 8.0 | 16.1 | 0.00 | 0.00 | 0.00 | 100 | 1017.1 |